IK5WWP Weather Reports


Display with metric or nautical units.
time (UTC)temp
F
wind
direction
speed
MPH
gust
MPH
rain 1hr
in
rain 24hr
in
rain mn
in
humidity
%
barometer
mb
20260901093627 85 94 3.0 4.0 0.00 0.00 0.00 66 1016.7
20260901092727 85 85 2.0 4.0 0.00 0.00 0.00 67 1016.5
20260901091827 85 73 2.0 4.0 0.00 0.00 0.00 67 1016.5
20260901090927 83 86 2.0 4.0 0.00 0.00 0.00 68 1016.6
20260901090027 83 83 2.0 4.0 0.00 0.00 0.00 69 1016.7
20260901085127 83 73 1.0 4.0 0.00 0.00 0.00 69 1016.7
20260901084227 81 88 2.0 4.0 0.00 0.00 0.00 71 1016.6
20260901083327 82 72 1.0 2.0 0.00 0.00 0.00 70 1016.4
20260901082427 80 81 0.0 4.0 0.00 0.00 0.00 72 1016.6
20260901081527 79 68 2.0 4.0 0.00 0.00 0.00 73 1016.4
20260901080627 78 68 2.0 4.0 0.00 0.00 0.00 75 1016.6
20260901074828 78 66 1.0 4.0 0.00 0.00 0.00 77 1016.4
20260901073927 77 61 0.0 4.0 0.00 0.00 0.00 77 1016.3
20260901073028 77 45 0.0 2.0 0.00 0.00 0.00 78 1016.1
20260901072128 76 45 0.0 4.0 0.00 0.00 0.00 78 1015.9
20260901071228 75 0 0.0 0.0 0.00 0.00 0.00 79 1016.2
20260901070329 74 23 0.0 2.0 0.00 0.00 0.00 80 1016.1
20260901065427 74 22 0.0 2.0 0.00 0.00 0.00 81 1016.0
20260901064527 73 23 0.0 2.0 0.00 0.00 0.00 81 1016.3
20260901063628 73 23 0.0 2.0 0.00 0.00 0.00 82 1016.2
20260901061828 72 0 0.0 0.0 0.00 0.00 0.00 83 1016.1
20260901060927 71 23 0.0 2.0 0.00 0.00 0.00 83 1016.1
20260901060027 71 22 0.0 2.0 0.00 0.00 0.00 83 1016.3
20260901055127 71 22 0.0 2.0 0.00 0.00 0.00 83 1015.9
20260901054227 71 23 0.0 2.0 0.00 0.00 0.00 84 1016.1
20260901053328 70 23 0.0 2.0 0.00 0.00 0.00 84 1016.2
20260901051528 70 22 0.0 2.0 0.00 0.00 0.00 83 1015.9
20260901050628 70 22 0.0 2.0 0.00 0.00 0.00 83 1015.9
20260901045728 70 22 0.0 2.0 0.00 0.00 0.00 83 1016.0
20260901043928 70 23 1.0 2.0 0.00 0.00 0.00 84 1016.0
20260901043028 70 23 0.0 2.0 0.00 0.00 0.00 84 1015.6
20260901041228 70 23 0.0 2.0 0.00 0.00 0.00 83 1015.9
20260901040328 70 21 0.0 2.0 0.00 0.00 0.00 83 1015.7
20260901035428 70 28 0.0 2.0 0.00 0.00 0.00 83 1015.8
20260901034528 70 23 0.0 2.0 0.00 0.00 0.00 83 1016.1
20260901033628 70 23 0.0 2.0 0.00 0.00 0.00 82 1015.8
20260901032728 70 22 0.0 2.0 0.00 0.00 0.00 82 1016.0
20260901031828 70 29 0.0 2.0 0.00 0.00 0.00 82 1015.9
20260901030028 69 27 0.0 2.0 0.00 0.00 0.00 83 1016.1
20260901024228 69 46 0.0 2.0 0.00 0.00 0.00 83 1016.2
20260901023328 70 0 0.0 0.0 0.00 0.00 0.00 83 1015.8
20260901022428 69 0 0.0 0.0 0.00 0.00 0.00 83 1016.0
20260901021528 69 0 0.0 0.0 0.00 0.00 0.00 83 1015.9
20260901020628 69 0 0.0 0.0 0.00 0.00 0.00 83 1015.8
20260901015728 69 0 0.0 0.0 0.00 0.00 0.00 84 1015.8
20260901014828 70 0 0.0 0.0 0.00 0.00 0.00 83 1015.7
20260901013928 70 0 0.0 0.0 0.00 0.00 0.00 81 1015.7
20260901013028 70 45 0.0 2.0 0.00 0.00 0.00 82 1015.6
20260901012128 69 0 0.0 0.0 0.00 0.00 0.00 83 1015.8
20260901011228 71 0 0.0 0.0 0.00 0.00 0.00 84 1015.6
20260901010328 70 0 0.0 0.0 0.00 0.00 0.00 84 1015.7
20260901005428 70 0 0.0 0.0 0.00 0.00 0.00 84 1015.5
20260901004528 70 0 0.0 0.0 0.00 0.00 0.00 82 1015.6
20260901003628 70 23 0.0 2.0 0.00 0.00 0.00 81 1015.6
20260901002728 70 23 0.0 2.0 0.00 0.00 0.00 81 1015.8
20260901000928 71 22 0.0 2.0 0.00 0.00 0.00 80 1015.9
20260901000028 71 22 0.0 2.0 0.00 0.00 0.00 81 1015.9
20260831232428 71 23 0.0 2.0 0.00 0.00 0.00 79 1016.0
20260831231528 70 23 0.0 2.0 0.00 0.00 0.00 80 1015.9
20260831230628 70 23 1.0 2.0 0.00 0.00 0.00 80 1015.9
20260831225728 71 22 0.0 2.0 0.00 0.00 0.00 80 1015.8
20260831224828 71 0 0.0 0.0 0.00 0.00 0.00 81 1015.8
20260831223028 71 22 0.0 2.0 0.00 0.00 0.00 79 1015.5
20260831222128 71 29 0.0 2.0 0.00 0.00 0.00 79 1015.5
20260831221228 71 37 0.0 2.0 0.00 0.00 0.00 79 1015.5
20260831215447 71 27 0.0 4.0 0.00 0.00 0.00 79 1015.3
20260831213647 71 27 2.0 4.0 0.00 0.00 0.00 78 1015.3
20260831212747 72 31 1.0 4.0 0.00 0.00 0.00 78 1015.1
20260831211847 71 26 2.0 4.0 0.00 0.00 0.00 79 1015.0
20260831210947 71 30 1.0 4.0 0.00 0.00 0.00 79 1015.2
20260831210047 72 28 1.0 4.0 0.00 0.00 0.00 79 1014.9
20260831205147 72 25 1.0 4.0 0.00 0.00 0.00 79 1014.9
20260831204247 72 29 1.0 2.0 0.00 0.00 0.00 78 1014.8
20260831203347 72 43 1.0 2.0 0.00 0.00 0.00 78 1014.9
20260831202448 73 40 0.0 2.0 0.00 0.00 0.00 76 1014.8
20260831201547 73 33 1.0 4.0 0.00 0.00 0.00 76 1014.8
20260831195748 73 32 0.0 4.0 0.00 0.00 0.00 78 1014.6
20260831192148 74 36 1.0 2.0 0.00 0.00 0.00 78 1014.3
20260831191248 75 30 0.0 2.0 0.00 0.00 0.00 77 1014.3
20260831190348 76 0 0.0 0.0 0.00 0.00 0.00 75 1014.5
20260831185447 76 46 0.0 2.0 0.00 0.00 0.00 75 1014.5
20260831184547 77 23 0.0 2.0 0.00 0.00 0.00 74 1014.4
20260831183648 77 0 0.0 0.0 0.00 0.00 0.00 75 1014.0
20260831182748 78 38 0.0 2.0 0.00 0.00 0.00 74 1014.1
20260831180948 79 57 0.0 2.0 0.00 0.00 0.00 72 1013.9
20260831180048 79 68 0.0 2.0 0.00 0.00 0.00 72 1013.9
20260831175148 79 54 1.0 2.0 0.00 0.00 0.00 71 1014.0
20260831173348 80 55 0.0 4.0 0.00 0.00 0.00 70 1013.7
20260831172448 80 76 1.0 4.0 0.00 0.00 0.00 68 1013.9
20260831171548 81 66 1.0 4.0 0.00 0.00 0.00 68 1014.0
20260831165748 82 84 1.0 2.0 0.00 0.00 0.00 66 1014.1
20260831164848 82 56 0.0 4.0 0.00 0.00 0.00 65 1014.0
20260831163948 82 74 0.0 4.0 0.00 0.00 0.00 64 1014.0
20260831163048 82 54 1.0 4.0 0.00 0.00 0.00 63 1013.9
20260831162148 83 68 1.0 4.0 0.00 0.00 0.00 61 1014.0
20260831161248 83 66 2.0 4.0 0.00 0.00 0.00 60 1013.9
20260831160348 83 43 2.0 4.0 0.00 0.00 0.00 59 1013.8
20260831155448 84 49 1.0 4.0 0.00 0.00 0.00 59 1013.8
20260831154548 84 68 1.0 4.0 0.00 0.00 0.00 56 1014.1
20260831153648 84 58 1.0 6.0 0.00 0.00 0.00 57 1014.3
20260831152748 84 47 1.0 9.0 0.00 0.00 0.00 57 1014.0
20260831151848 84 31 3.0 4.0 0.00 0.00 0.00 56 1014.2
20260831150948 85 46 1.0 4.0 0.00 0.00 0.00 56 1014.1
20260831150048 85 42 2.0 7.0 0.00 0.00 0.00 56 1014.1
20260831145148 85 39 2.0 6.0 0.00 0.00 0.00 55 1014.3
20260831143348 86 46 2.0 4.0 0.00 0.00 0.00 55 1014.1
20260831141548 86 57 2.0 7.0 0.00 0.00 0.00 54 1014.0
20260831140648 87 47 2.0 4.0 0.00 0.00 0.00 54 1014.0
20260831135748 87 47 1.0 4.0 0.00 0.00 0.00 55 1014.2
20260831134848 87 114 2.0 6.0 0.00 0.00 0.00 56 1014.1
20260831132148 90 86 1.0 6.0 0.00 0.00 0.00 53 1014.2
20260831131248 89 40 1.0 7.0 0.00 0.00 0.00 54 1013.9
20260831130348 90 58 0.0 6.0 0.00 0.00 0.00 53 1013.9
20260831125448 90 75 0.0 4.0 0.00 0.00 0.00 53 1014.1
20260831124549 90 37 1.0 7.0 0.00 0.00 0.00 52 1014.3
20260831123648 90 62 1.0 4.0 0.00 0.00 0.00 53 1014.3
20260831122748 90 56 0.0 4.0 0.00 0.00 0.00 53 1014.2
20260831121848 89 95 2.0 4.0 0.00 0.00 0.00 52 1014.3
20260831120948 89 55 2.0 8.0 0.00 0.00 0.00 55 1014.2
20260831120048 89 101 2.0 4.0 0.00 0.00 0.00 54 1014.3
20260831115148 89 87 2.0 6.0 0.00 0.00 0.00 55 1014.2
20260831114248 90 70 2.0 6.0 0.00 0.00 0.00 54 1014.5
20260831113348 88 28 1.0 4.0 0.00 0.00 0.00 53 1014.7
20260831112448 89 42 1.0 4.0 0.00 0.00 0.00 51 1014.3
20260831111548 88 36 1.0 4.0 0.00 0.00 0.00 54 1014.8
20260831110648 88 45 2.0 6.0 0.00 0.00 0.00 53 1014.5
20260831105748 87 46 1.0 6.0 0.00 0.00 0.00 55 1014.6
20260831103948 87 34 1.0 4.0 0.00 0.00 0.00 53 1014.6
20260831103048 87 27 0.0 4.0 0.00 0.00 0.00 53 1014.8
20260831102148 87 32 2.0 4.0 0.00 0.00 0.00 55 1014.8
20260831101248 85 28 3.0 4.0 0.00 0.00 0.00 56 1014.7
20260831100348 85 28 2.0 4.0 0.00 0.00 0.00 58 1014.7
20260831094548 86 22 1.0 4.0 0.00 0.00 0.00 62 1014.9